RH
25 26 28 36 45 56 42 37 37 29 25 18 22 28 28 28 27 25 23 21 20 20 22 22 24 24 24 25 27 29 30 31 30 32 42 78 94 97 89 83 82 85 86
24 24 27 33 44 43 38 39 38 31 24 23 28 26 27 25 24 22 22 22 21 22 22 22 22 24 27 29 30 30 30 34 34 36 43 47 68 92 81 80 81 79 76
24 28 30 34 38 40 41 44 37 31 22 29 26 27 24 24 24 23 24 23 24 24 23 22 22 23 25 27 30 32 35 36 40 41 46 52 58 46 48 60 72 54 46
28 30 33 36 40 43 44 44 39 30 27 28 28 26 25 24 24 24 24 24 24 24 23 23 23 22 22 23 24 27 32 36 42 50 54 55 61 59 53 42 39 42 49
30 32 35 40 43 45 47 44 39 27 31 28 29 26 25 25 24 24 26 26 26 25 25 24 23 23 22 22 21 21 23 29 36 42 50 56 60 67 74 54 35 30 44
38 40 42 44 47 48 46 46 38 28 31 30 30 28 26 27 26 27 28 28 28 28 26 25 24 22 20 20 18 18 19 20 23 28 35 46 60 68 78 80 50 37 29
40 40 44 46 48 47 47 44 34 29 32 31 32 30 28 29 28 28 30 30 29 28 27 25 23 20 18 17 16 16 17 18 20 21 23 28 36 45 58 68 69 62 28
41 44 48 48 48 50 48 41 31 30 34 34 35 33 30 30 30 31 32 32 31 30 28 27 26 24 22 19 18 17 17 18 19 20 20 21 23 25 34 44 55 63 52
43 47 50 50 50 48 46 43 37 34 36 36 38 37 34 33 33 34 35 35 34 32 30 31 32 32 31 28 24 22 20 21 22 23 23 22 20 21 23 25 34 58 79
51 50 49 48 48 45 41 38 37 37 41 40 41 42 39 37 38 38 38 37 36 34 33 35 38 41 41 38 33 27 25 24 24 25 25 24 20 18 19 21 24 34 52
49 47 46 45 44 43 40 40 40 43 47 48 47 46 45 42 41 41 41 40 39 38 37 37 42 47 49 48 45 38 33 31 29 28 28 26 24 20 15 16 20 26 40
44 41 40 40 43 45 45 43 45 50 55 55 55 53 51 50 50 48 46 44 44 45 44 42 42 47 53 56 56 51 43 39 38 35 31 29 25 21 15 12 14 18 24
48 47 44 41 40 40 42 46 48 54 58 59 59 56 55 55 55 53 48 46 46 48 50 52 52 52 55 61 65 56 51 47 45 41 35 31 24 20 14 12 12 13 20
55 53 50 52 53 51 48 48 53 60 63 65 62 61 59 59 59 56 53 54 56 58 58 59 60 67 74 78 78 60 57 53 48 42 35 29 24 22 20 18 16 16 16
56 54 52 52 53 56 59 60 60 61 62 63 63 62 62 62 62 64 65 70 74 84 92 83 69 78 82 77 68 64 58 50 45 42 38 35 33 33 32 30 28 25 23
49 45 42 37 33 29 26 26 37 52 61 65 66 67 67 67 64 66 83 84 82 83 70 70 73 68 66 67 66 56 52 51 49 46 43 40 36 35 32 29 28 28 29
56 52 48 38 33 30 25 19 15 13 12 12 12 12 13 12 12 13 14 18 26 37 51 58 60 55 53 46 40 38 38 38 38 37 35 32 28 25 24 23 24 27 32
61 59 45 45 40 22 12 10 11 11 12 13 14 16 19 21 23 23 21 18 16 19 28 31 38 48 50 51 50 47 40 40 43 40 38 37 35 33 31 28 23 22 25
60 53 46 39 19 12 13 13 14 14 16 18 21 25 24 23 26 26 24 24 26 23 19 21 23 32 39 47 48 52 55 40 32 42 47 43 34 29 28 31 30 30 26
58 50 39 21 13 15 16 16 18 20 23 25 31 33 30 26 26 25 26 26 25 24 23 22 22 21 23 21 27 43 56 37 43 50 49 50 42 33 34 37 40 41 31
63 54 34 18 16 18 21 24 26 28 30 31 32 34 36 36 40 35 24 26 26 28 30 33 28 28 26 24 23 25 33 36 58 64 58 43 39 38 42 42 49 42 38
52 40 26 24 24 27 31 31 29 29 34 35 34 36 43 46 45 31 24 27 33 38 39 37 32 29 28 29 32 38 41 53 96 89 74 58 52 51 48 47 47 46 56
24 24 26 24 22 24 29 29 24 32 38 39 36 38 48 49 39 27 30 32 34 37 38 44 47 45 46 51 55 58 59 60 73 76 67 60 55 57 58 55 57 84 91
24 25 24 24 24 26 26 23 20 21 23 29 40 44 38 29 28 33 38 40 39 44 52 64 71 74 78 84 79 84 83 80 84 85 88 85 86 90 86 81 75 78 82
21 22 25 28 27 25 20 19 22 25 27 29 32 34 37 40 46 49 54 60 59 67 78 94 98 99 92 88 95 98 97 97 96 96 95 92 93 90 82 84 83 86 90
24 26 26 24 21 22 21 21 26 38 50 56 56 58 62 64 68 69 68 70 71 77 90 100 100 97 99 98 96 97 97 96 96 97 96 95 93 87 84 88 89 92 91
Wind_Speed
13 13 12 12 14 16 14 10 9 8 7 5 4 4 4 5 7 8 9 10 12 13 13 14 15 15 16 17 17 16 15 15 15 12 7 2 1 3 1 6 9 13 15
16 15 14 14 15 14 13 10 9 7 6 5 5 4 5 6 6 7 8 9 10 11 13 14 15 15 15 15 16 17 17 17 16 15 10 5 3 7 10 12 14 13 16
18 17 15 14 14 13 10 10 8 8 7 6 5 4 5 6 6 7 7 8 9 11 12 14 14 15 15 16 17 17 17 17 15 13 10 5 5 19 5 7 9 12 17
19 17 15 15 13 11 11 10 9 8 6 6 5 5 5 6 6 6 6 7 9 10 11 12 13 13 14 14 15 16 16 16 15 12 10 8 7 6 10 6 14 16 12
18 16 14 12 11 11 11 10 9 8 8 7 6 6 6 6 6 6 6 6 7 9 10 11 11 12 13 14 14 15 15 15 14 14 13 10 8 6 7 18 24 17 12
16 13 11 12 12 12 12 11 10 10 9 8 8 7 7 7 7 6 6 6 7 8 9 10 11 12 12 12 13 14 14 14 13 13 12 12 12 12 10 17 21 21 20
14 12 12 12 12 11 11 11 12 11 11 10 9 9 9 9 8 8 7 7 7 7 8 8 9 10 12 12 13 13 13 13 13 13 12 12 12 13 13 15 17 20 21
12 10 9 9 10 11 11 11 12 12 12 12 11 11 11 11 11 10 9 9 8 8 8 8 10 11 12 13 13 13 13 13 13 14 14 13 14 14 14 15 17 19 16
10 8 8 8 9 10 11 11 12 13 14 13 13 13 13 13 13 12 11 11 10 10 9 9 10 11 13 14 14 15 15 15 15 15 15 15 15 16 16 16 16 16 13
7 6 7 9 10 11 11 12 13 13 14 14 14 14 14 14 14 14 13 13 13 12 11 11 11 12 14 16 16 17 17 17 17 18 17 17 18 17 17 17 16 16 17
3 4 6 10 12 12 12 11 12 12 12 13 13 14 14 15 15 16 15 15 14 14 14 14 14 15 16 18 19 20 20 20 20 20 21 20 20 19 18 19 18 17 16
4 2 3 5 6 12 13 13 12 11 12 12 12 12 13 13 14 15 16 16 16 17 17 18 18 19 20 21 22 24 23 23 23 23 22 22 22 21 20 19 19 19 18
7 5 2 4 6 7 9 13 14 14 13 13 13 12 12 12 13 15 16 16 17 18 20 21 21 22 23 24 25 26 26 27 26 25 24 23 23 22 21 20 20 20 19
7 6 6 8 10 11 10 8 6 10 11 12 12 13 13 13 14 15 16 17 18 20 22 23 23 25 29 30 29 27 28 28 27 26 25 24 24 24 23 23 22 22 22
7 6 7 8 9 9 10 11 10 7 5 7 9 11 12 14 16 17 19 20 22 25 28 27 26 28 30 26 26 27 28 28 27 26 26 26 25 26 26 26 25 25 25
7 6 6 6 6 8 8 8 8 8 8 9 10 12 14 16 18 21 25 26 26 25 24 25 27 26 27 28 29 28 28 28 29 29 29 29 29 29 29 28 28 28 28
6 4 4 6 8 9 10 10 11 12 13 14 15 17 19 21 23 24 25 25 25 25 26 27 28 30 29 26 26 26 28 29 30 30 30 30 30 30 31 30 30 29 27
3 2 4 8 9 9 9 10 11 13 16 18 20 22 25 27 28 30 30 31 31 31 31 31 29 29 29 29 30 32 33 34 34 34 33 32 32 32 31 32 33 31 29
2 2 4 7 8 8 11 13 15 18 21 23 25 27 27 29 31 32 33 33 33 34 34 35 35 35 37 35 35 36 37 35 36 36 34 33 33 32 30 29 30 30 30
2 4 7 8 9 12 15 18 20 24 26 28 30 31 30 31 34 35 35 34 34 34 35 36 35 36 38 38 37 36 37 37 33 34 33 31 31 29 28 27 27 28 31
4 8 10 10 12 16 20 23 25 30 30 32 35 37 35 36 37 40 38 37 36 35 33 32 33 33 34 34 34 33 31 31 31 30 33 31 28 28 27 26 26 30 29
6 9 11 13 16 19 23 27 31 33 33 33 35 36 37 38 40 41 39 35 32 31 33 34 37 37 37 36 34 33 31 27 26 29 32 32 30 29 29 29 30 30 26
6 9 14 20 24 26 28 32 34 34 35 35 37 37 38 42 43 38 35 34 34 34 36 37 39 41 39 36 33 32 31 30 28 30 32 31 30 29 28 29 28 24 25
12 18 23 28 33 33 34 34 35 34 34 35 36 39 42 42 39 38 37 36 38 38 37 36 37 38 38 38 37 35 32 29 28 28 29 29 28 28 29 29 28 27 26
20 25 30 33 37 38 39 38 36 35 36 37 39 40 40 42 41 40 39 36 36 33 32 31 33 36 39 38 33 31 33 33 34 33 33 33 32 32 31 30 30 29 27
27 31 33 34 36 38 41 42 41 38 37 37 39 39 40 40 39 39 40 35 34 31 28 28 29 32 32 32 31 30 31 31 30 30 32 33 33 34 33 33 29 26 24
Wind_Direction
202 207 208 206 205 209 219 238 246 247 261 260 245 260 290 310 322 329 337 345 347 348 350 353 354 354 352 352 353 355 352 352 360 3 350 273 188 167 244 271 282 289 299
209 207 205 206 206 213 221 238 235 245 255 235 241 259 293 306 312 324 334 343 346 351 355 357 358 0 1 358 358 360 1 0 6 13 12 356 294 255 280 276 281 294 304
208 202 199 198 201 212 229 233 239 247 242 238 246 269 289 295 303 315 329 338 349 356 358 -0 2 3 4 3 5 5 5 4 9 13 23 360 339 334 347 297 296 312 325
200 200 201 205 210 219 232 234 239 247 239 239 247 268 280 292 298 304 321 339 349 352 356 360 3 5 7 7 7 9 8 5 6 10 10 1 343 336 323 320 324 331 345
194 195 200 207 220 233 233 233 240 238 235 239 253 275 283 284 287 296 311 329 340 343 347 354 -0 2 2 3 5 5 6 6 4 1 358 352 341 328 312 319 337 346 4
186 192 203 219 230 229 229 238 240 240 240 242 252 265 273 275 276 282 300 315 322 329 340 349 354 357 359 357 359 359 359 359 360 357 353 347 340 326 317 312 329 335 347
187 198 214 221 222 228 238 243 242 241 244 248 260 270 273 275 277 277 280 288 298 312 326 337 344 347 350 352 353 352 349 347 346 346 347 342 334 327 321 316 320 324 332
191 201 213 221 226 235 244 253 253 252 253 253 260 270 275 276 275 272 275 280 287 300 314 325 333 339 342 344 344 342 339 337 335 332 331 329 326 322 319 315 314 316 317
190 204 220 233 242 253 264 269 262 258 258 259 265 274 281 281 278 276 278 281 286 295 304 313 322 328 330 331 330 329 326 324 322 319 316 313 311 310 309 308 307 302 301
196 221 241 251 256 263 267 266 264 264 263 266 274 284 289 288 285 282 282 283 284 288 295 302 310 316 319 320 321 319 315 313 311 309 307 306 306 303 301 300 296 291 288
206 256 269 267 264 260 258 264 266 267 270 273 279 286 290 289 286 284 283 283 284 286 289 292 298 303 308 311 312 310 307 305 305 304 302 301 299 298 297 296 295 292 285
114 75 11 338 305 263 255 256 256 262 268 269 275 284 288 290 290 290 290 289 289 291 293 295 296 298 301 304 306 304 299 298 298 298 296 295 294 293 291 288 287 286 286
120 107 49 355 340 320 296 264 253 250 257 260 266 274 281 287 292 292 291 291 292 293 294 294 293 294 297 299 301 298 295 293 294 293 291 291 289 289 289 287 285 284 282
113 87 65 50 40 30 21 1 303 264 262 263 272 278 281 285 288 289 290 291 293 296 298 297 296 297 297 297 297 294 294 292 291 290 288 288 287 288 287 285 284 284 283
118 97 78 63 50 38 31 27 22 6 331 298 289 288 288 292 296 297 298 301 302 299 296 294 292 296 296 295 294 291 291 291 289 285 283 282 283 284 285 285 283 281 280
137 113 84 61 38 23 11 3 356 351 346 334 325 316 310 307 306 303 298 298 298 296 290 288 294 293 290 290 291 290 289 287 286 285 282 280 280 280 280 281 282 280 280
145 105 43 21 11 0 353 347 348 345 338 335 331 326 323 319 316 312 308 304 300 295 291 290 290 290 289 288 288 289 289 289 288 287 286 285 282 282 282 280 279 277 275
131 31 7 353 345 344 340 338 335 333 330 326 323 320 318 315 313 311 308 304 300 296 293 290 289 289 287 288 289 292 291 290 289 288 287 286 285 283 283 282 279 277 275
212 295 323 329 327 322 323 322 322 323 320 319 318 318 319 316 314 311 308 306 304 302 299 296 293 290 288 288 289 290 291 292 289 287 288 288 287 286 281 278 276 276 273
298 317 317 308 304 309 312 311 314 315 315 316 316 316 317 319 319 314 309 306 303 300 298 295 293 292 291 290 290 289 291 292 288 288 287 285 284 284 283 278 273 273 273
325 310 295 299 307 309 308 308 310 306 313 312 310 308 309 313 314 315 308 304 303 302 300 300 299 297 296 295 294 293 293 289 285 284 288 287 283 281 281 276 271 271 277
293 287 299 305 307 309 308 306 303 307 305 301 295 295 297 303 308 309 305 303 303 301 299 300 300 299 298 296 295 295 294 291 285 283 288 290 288 282 280 278 277 278 275
279 304 312 310 310 311 310 307 306 306 305 302 298 293 294 299 304 303 303 303 302 301 301 302 303 303 303 302 302 300 298 292 284 281 285 286 283 280 277 276 277 275 270
311 316 314 311 310 311 311 310 309 309 306 302 298 296 298 300 300 300 300 300 299 301 302 303 304 305 304 305 307 307 307 302 295 290 287 286 283 281 280 279 277 276 275
312 311 310 310 309 310 308 308 309 310 305 301 299 298 298 299 300 300 300 302 300 301 300 298 297 298 298 300 302 300 297 297 296 295 289 286 282 282 281 279 278 277 275
310 310 310 310 309 310 309 309 311 310 307 304 302 302 302 302 301 301 302 301 301 302 297 295 292 293 293 295 297 296 295 294 293 290 284 280 279 280 282 283 284 280 272